Creek Data

    Home     View Charts     View Raw Data     Messages

ID Distance Battery Voltage Battery Current Internal Temp Internal Humidity External Temp Solar Input rssi snr Time Stamp Record
65584 15.0 3.88 -6 39 49 39 4.5 -84 8 02/07/2026 08:00 AM 48378
65583 15.0 3.84 0 39 49 39 4.5 -83 8 02/07/2026 07:45 AM 48377
65582 15.0 3.90 0 39 49 39 4.5 -82 8 02/07/2026 07:30 AM 48376
65581 15.0 3.82 -7 39 50 40 4.6 -81 8 02/07/2026 07:15 AM 48375
65580 15.0 3.81 -10 39 50 39 2.3 -81 8 02/07/2026 07:00 AM 48374
65579 15.0 3.88 -5 38 50 39 1 -78 8 02/07/2026 06:45 AM 48373
65578 15.0 3.82 -5 40 49 40 0 -77 9 02/07/2026 06:30 AM 48372
65577 15.0 3.83 -5 40 50 42 0 -77 8 02/07/2026 06:15 AM 48371
65576 15.0 3.82 -5 39 50 42 0.1 -77 8 02/07/2026 06:00 AM 48370
65575 15.0 3.83 -5 40 50 40 0 -77 8 02/07/2026 05:45 AM 48369
65574 15.0 3.83 -5 41 50 41 0 -77 8 02/07/2026 05:30 AM 48368
65573 15.0 3.83 -5 42 50 44 0.1 -77 9 02/07/2026 05:15 AM 48367
65572 15.0 3.83 -5 42 50 44 0 -77 8 02/07/2026 05:00 AM 48366
65571 15.0 3.83 -5 42 49 43 0 -77 8 02/07/2026 04:45 AM 48365
65570 15.0 3.83 -5 42 49 44 0 -77 8 02/07/2026 04:30 AM 48364
65569 15.0 3.83 -5 42 49 44 0 -77 8 02/07/2026 04:15 AM 48363
65568 15.0 3.83 -5 42 50 44 0 -77 8 02/07/2026 04:00 AM 48362
65567 15.0 3.89 -5 42 50 42 0.1 -76 9 02/07/2026 03:45 AM 48361
65566 15.0 3.83 -5 43 50 44 0.1 -76 8 02/07/2026 03:30 AM 48360
65565 15.0 3.89 -5 43 50 44 0 -76 8 02/07/2026 03:15 AM 48359
65564 15.0 3.83 -5 43 50 44 0.1 -77 8 02/07/2026 03:00 AM 48358
65563 15.0 3.89 -5 43 50 45 0 -77 8 02/07/2026 02:45 AM 48357
65562 15.0 3.83 -5 43 50 44 0 -77 8 02/07/2026 02:30 AM 48356
65561 15.0 3.89 -5 43 50 46 0 -76 9 02/07/2026 02:15 AM 48355
65560 15.0 3.83 -5 44 49 47 0.1 -76 9 02/07/2026 02:00 AM 48354